[[{"header":{"parameterUnit":"m.s-1","parameterCategory":1,"la1":30.2991,"la2":30.254,"lo1":-89.0895,"lo2":-89.0444,"dy":0.0017,"dx":0.0017,"nx":28,"ny":28,"refTime":"2025-02-04T09:00:00:Z","depth":0,"parameterNumber":2,"parameterNumberName":"U-component_of_WINDS"},"data":[0,0,0,0,0,0,0,0,0,0,0,0,0,0,0,0,0,0,0,0,0,0,0,0,0,0,0,0,0,0,0,0,0,0,0,0,0,0,0,0,0,0,0,0,0,0,0,0,0,0,0,0,0,0,0,0,0,0,-0.7763,-0.7763,0,-0.7724,-0.7724,-0.7723,-0.7682,-0.7681,-0.7681,-0.768,-0.7639,-0.7639,-0.7638,0,0,0,0,0,0,0,0,0,0,0,0,0,-0.7801,-0.7801,-0.7763,-0.7763,-0.7762,-0.7724,-0.7724,-0.7723,-0.7682,-0.7681,-0.7681,-0.768,-0.764,-0.7639,-0.7638,0,0,0,0,0,0,0,0,0,0,0,0,0,-0.7776,-0.7801,-0.7764,-0.7737,-0.7734,-0.7724,-0.7724,-0.7723,-0.7682,-0.7681,-0.768,-0.768,-0.764,-0.7639,-0.7638,-0.7651,0,0,-0.7636,-0.7635,0,0,0,0,0,0,0,0,-0.7777,-0.7775,-0.7742,-0.7739,-0.7736,-0.7707,-0.7722,-0.7699,-0.7682,-0.7702,-0.768,-0.7679,-0.7663,-0.766,-0.7654,-0.7649,-0.7647,-0.7636,-0.7635,-0.7635,-0.7635,0,0,0,0,0,0,0,-0.7779,-0.7776,-0.7748,-0.7741,-0.7738,-0.7727,-0.7722,-0.7718,-0.7688,-0.77,-0.7697,-0.7693,-0.7661,-0.7655,-0.7653,-0.7646,-0.7636,-0.7635,-0.7635,-0.7634,-0.7648,-0.7649,0,0,0,0,0,0,-0.7785,-0.7778,-0.7749,-0.7747,-0.7755,-0.7727,-0.7722,-0.7717,-0.7688,-0.7682,-0.7694,-0.7691,-0.7657,-0.7654,-0.7652,-0.7664,-0.7635,-0.7634,-0.7634,-0.7647,-0.7648,-0.7649,0,0,0,0,0,0,-0.7786,-0.7783,-0.7751,-0.7761,-0.7756,-0.7727,-0.7722,-0.7717,-0.7711,-0.7683,-0.7677,-0.7694,-0.7656,-0.7653,-0.7651,-0.7662,-0.7634,-0.7633,-0.7646,-0.7648,-0.7649,-0.7688,0,0,0,0,0,0,-0.7787,-0.7784,-0.7788,-0.7762,-0.7756,-0.7751,-0.7723,-0.7717,-0.771,-0.7706,-0.7681,-0.7676,-0.7655,-0.7653,-0.765,-0.766,-0.7632,-0.7645,-0.7647,-0.7648,-0.7686,-0.7691,-0.7695,0,0,0,0,0,-0.7789,-0.7801,-0.7789,-0.7785,-0.7761,-0.7752,-0.7749,-0.7725,-0.7711,-0.7715,-0.7697,-0.7677,-0.7661,-0.7653,-0.765,-0.7659,-0.7644,-0.7646,-0.7648,-0.7684,-0.769,-0.7695,0,0,0,0,0,0,-0.7829,-0.7797,-0.7783,-0.7787,-0.7773,-0.7745,-0.775,-0.7732,-0.7721,-0.7718,-0.7688,-0.7683,-0.7685,-0.7672,-0.7663,-0.767,-0.765,-0.7651,-0.7678,-0.7683,-0.7688,-0.769,-0.7632,0,0,0,0,0,-0.7839,-0.7834,-0.7806,-0.7812,-0.7806,-0.7779,-0.7774,-0.7757,-0.7741,-0.7734,-0.7716,-0.7701,-0.7692,-0.7687,-0.7677,-0.7684,-0.7677,-0.7689,-0.7694,-0.7697,-0.7699,-0.7701,-0.7705,-0.7656,-0.7656,-0.7656,0,0,-0.7858,-0.784,-0.7839,-0.782,-0.7807,-0.7802,-0.7774,-0.7771,-0.7767,-0.7734,-0.7731,-0.7717,-0.7698,-0.77,-0.77,-0.7689,-0.7711,-0.77,-0.7703,-0.7702,-0.7703,-0.7708,-0.7712,-0.7657,-0.7657,-0.7657,0,0,-0.7891,-0.7877,-0.788,-0.7868,-0.7848,-0.783,-0.7831,-0.7806,-0.7795,-0.7792,-0.7767,-0.7762,-0.7748,-0.7735,-0.7727,-0.7754,-0.7735,-0.7752,-0.7775,-0.7777,-0.7781,-0.7785,-0.7794,-0.7798,-0.7754,-0.7754,-0.7754,0,-0.7918,-0.791,-0.7884,-0.7882,-0.7874,-0.7844,-0.7847,-0.7836,-0.7814,-0.7809,-0.7797,-0.7779,-0.7764,-0.7763,-0.7769,-0.7764,-0.7763,-0.7755,-0.7783,-0.7786,-0.7789,-0.7797,-0.7801,-0.7756,-0.7756,-0.7755,-0.7755,0,-0.7943,-0.7938,-0.7943,-0.7923,-0.7916,-0.7916,-0.789,-0.7886,-0.7869,-0.7852,-0.7849,-0.783,-0.7816,-0.7815,-0.7798,-0.7811,-0.7804,-0.7789,-0.7768,-0.7796,-0.7803,-0.7806,-0.7759,-0.7758,-0.7758,-0.7757,0,0,-0.8001,-0.7966,-0.7968,-0.7958,-0.7934,-0.793,-0.7928,-0.7915,-0.7911,-0.7897,-0.7895,-0.7884,-0.7868,-0.7859,-0.7841,-0.7843,-0.7865,-0.7826,-0.7825,-0.7834,-0.7877,-0.7889,-0.7893,-0.7853,-0.7853,-0.7853,-0.7878,0,-0.8029,-0.8025,-0.8002,-0.8005,-0.7999,-0.797,-0.7969,-0.7954,-0.7938,-0.7931,-0.7913,-0.7906,-0.7887,-0.7881,-0.7881,-0.7862,-0.7873,-0.786,-0.785,-0.785,-0.7855,-0.7897,-0.791,-0.7934,-0.7881,-0.7881,-0.7882,0,-0.8061,-0.8049,-0.8052,-0.8027,-0.8024,-0.8023,-0.8008,-0.8002,-0.7984,-0.7973,-0.7962,-0.7942,-0.7938,-0.7919,-0.7914,-0.7905,-0.79,-0.789,-0.789,-0.7888,-0.7867,-0.7895,-0.7941,-0.7945,-0.7886,-0.7886,-0.7886,0,-0.8102,-0.8087,-0.8086,-0.8078,-0.805,-0.805,-0.8038,-0.8019,-0.8012,-0.7999,-0.7994,-0.7981,-0.7974,-0.7964,-0.794,-0.7928,-0.7937,-0.7916,-0.7927,-0.7927,-0.7929,-0.7929,-0.7974,-0.7927,-0.7927,-0.7926,-0.7926,0,-0.8136,-0.8138,-0.8104,-0.8103,-0.8105,-0.8078,-0.808,-0.8065,-0.8049,-0.8044,-0.8018,-0.8015,-0.7984,-0.7977,-0.7958,-0.7956,-0.7953,-0.7943,-0.7938,-0.7945,-0.7946,-0.7941,-0.7938,-0.7927,-0.7927,-0.7927,-0.7927,0,-0.8182,-0.8159,-0.8156,-0.8129,-0.8122,-0.8125,-0.8101,-0.8099,-0.8082,-0.8077,-0.8074,-0.8046,-0.8037,-0.8012,-0.7996,-0.7983,-0.7986,-0.7977,-0.7992,-0.7989,-0.8,-0.7999,-0.8043,-0.8047,-0.7997,-0.7998,-0.7998,0,-0.8205,-0.8206,-0.8179,-0.8174,-0.8164,-0.8156,-0.8149,-0.8122,-0.8116,-0.8095,-0.8096,-0.8084,-0.8073,-0.8058,-0.8036,-0.8024,-0.8014,-0.803,-0.8012,-0.8019,-0.8013,-0.8013,-0.8013,-0.8034,-0.8035,-0.8035,-0.8036,0,-0.8248,-0.8236,-0.8227,-0.8213,-0.8205,-0.8193,-0.818,-0.8178,-0.8147,-0.8141,-0.8131,-0.8122,-0.8105,-0.8094,-0.8077,-0.8064,-0.8045,-0.8041,-0.8043,-0.805,-0.8059,-0.8053,-0.8002,-0.804,-0.804,-0.804,-0.8039,-0.8039,-0.8282,-0.8282,-0.8263,-0.8253,-0.824,-0.8228,-0.8225,-0.8207,-0.8198,-0.8182,-0.8167,-0.8158,-0.8139,-0.8115,-0.8103,-0.8096,-0.8086,-0.8088,-0.8089,-0.809,-0.8092,-0.806,-0.8093,-0.8092,-0.8092,-0.8092,-0.8092,0,-0.8323,-0.8309,-0.8301,-0.8283,-0.8275,-0.8257,-0.8242,-0.8236,-0.8229,-0.8213,-0.8202,-0.819,-0.8178,-0.8156,-0.8142,-0.814,-0.8131,-0.8137,-0.8137,-0.8134,-0.8103,-0.8102,-0.8145,-0.8145,-0.8145,-0.8145,-0.8145,-0.8145,-0.8344,-0.8342,-0.8328,-0.8319,-0.8305,-0.8296,-0.8288,-0.8277,-0.8264,-0.8251,-0.8241,-0.8227,-0.8208,-0.8193,-0.8181,-0.8174,-0.817,-0.818,-0.817,-0.8141,-0.8136,-0.8132,-0.8131,-0.8179,-0.8179,-0.8202,-0.8202,-0.8203]},{"header":{"parameterUnit":"m.s-1","parameterCategory":1,"la1":30.2991,"la2":30.254,"lo1":-89.0895,"lo2":-89.0444,"dy":0.0017,"dx":0.0017,"nx":28,"ny":28,"refTime":"2025-02-04T09:00:00:Z","depth":0,"parameterNumber":3,"parameterNumberName":"V-component_of_WINDS"},"data":[0,0,0,0,0,0,0,0,0,0,0,0,0,0,0,0,0,0,0,0,0,0,0,0,0,0,0,0,0,0,0,0,0,0,0,0,0,0,0,0,0,0,0,0,0,0,0,0,0,0,0,0,0,0,0,0,0,0,-0.0859,-0.0859,0,-0.0849,-0.0849,-0.0848,-0.0837,-0.0837,-0.0837,-0.0837,-0.0827,-0.0827,-0.0826,0,0,0,0,0,0,0,0,0,0,0,0,0,-0.0868,-0.0868,-0.0859,-0.0859,-0.0859,-0.0849,-0.0849,-0.0848,-0.0837,-0.0837,-0.0837,-0.0837,-0.0827,-0.0827,-0.0826,0,0,0,0,0,0,0,0,0,0,0,0,0,-0.0862,-0.0868,-0.0859,-0.0852,-0.0851,-0.0849,-0.0849,-0.0848,-0.0838,-0.0837,-0.0837,-0.0837,-0.0827,-0.0827,-0.0826,-0.083,0,0,-0.0826,-0.0826,0,0,0,0,0,0,0,0,-0.0862,-0.0862,-0.0853,-0.0852,-0.0852,-0.0844,-0.0848,-0.0842,-0.0838,-0.0843,-0.0837,-0.0837,-0.0833,-0.0832,-0.0831,-0.0829,-0.0829,-0.0826,-0.0826,-0.0826,-0.0826,0,0,0,0,0,0,0,-0.0863,-0.0862,-0.0855,-0.0853,-0.0852,-0.0849,-0.0848,-0.0847,-0.0839,-0.0842,-0.0841,-0.084,-0.0832,-0.0831,-0.083,-0.0829,-0.0826,-0.0826,-0.0825,-0.0825,-0.083,-0.083,0,0,0,0,0,0,-0.0864,-0.0862,-0.0855,-0.0855,-0.0856,-0.0849,-0.0848,-0.0847,-0.0839,-0.0838,-0.0841,-0.084,-0.0831,-0.083,-0.083,-0.0833,-0.0826,-0.0825,-0.0825,-0.0829,-0.083,-0.083,0,0,0,0,0,0,-0.0865,-0.0864,-0.0856,-0.0858,-0.0857,-0.0849,-0.0848,-0.0847,-0.0845,-0.0838,-0.0836,-0.0841,-0.0831,-0.083,-0.083,-0.0833,-0.0825,-0.0825,-0.0829,-0.0829,-0.083,-0.084,0,0,0,0,0,0,-0.0865,-0.0864,-0.0865,-0.0858,-0.0857,-0.0856,-0.0848,-0.0847,-0.0845,-0.0844,-0.0837,-0.0836,-0.0831,-0.083,-0.083,-0.0832,-0.0825,-0.0829,-0.0829,-0.083,-0.0839,-0.0841,-0.0842,0,0,0,0,0,-0.0865,-0.0869,-0.0865,-0.0865,-0.0858,-0.0856,-0.0855,-0.0849,-0.0845,-0.0846,-0.0842,-0.0836,-0.0832,-0.083,-0.083,-0.0832,-0.0829,-0.0829,-0.083,-0.0839,-0.084,-0.0842,0,0,0,0,0,0,-0.0876,-0.0868,-0.0864,-0.0865,-0.0861,-0.0854,-0.0856,-0.0851,-0.0848,-0.0847,-0.0839,-0.0838,-0.0839,-0.0835,-0.0833,-0.0835,-0.083,-0.083,-0.0837,-0.0838,-0.084,-0.084,-0.0825,0,0,0,0,0,-0.0879,-0.0878,-0.087,-0.0872,-0.087,-0.0863,-0.0862,-0.0857,-0.0853,-0.0852,-0.0847,-0.0843,-0.0841,-0.0839,-0.0837,-0.0839,-0.0837,-0.084,-0.0841,-0.0842,-0.0843,-0.0843,-0.0844,-0.0831,-0.0831,-0.0831,0,0,-0.0884,-0.0879,-0.0879,-0.0874,-0.0871,-0.0869,-0.0862,-0.0861,-0.086,-0.0851,-0.0851,-0.0847,-0.0842,-0.0843,-0.0843,-0.084,-0.0846,-0.0843,-0.0844,-0.0844,-0.0844,-0.0845,-0.0846,-0.0832,-0.0832,-0.0832,0,0,-0.0893,-0.089,-0.089,-0.0887,-0.0882,-0.0877,-0.0877,-0.0871,-0.0868,-0.0867,-0.086,-0.0859,-0.0855,-0.0852,-0.085,-0.0857,-0.0852,-0.0857,-0.0863,-0.0863,-0.0864,-0.0865,-0.0867,-0.0868,-0.0857,-0.0857,-0.0857,0,-0.09,-0.0898,-0.0892,-0.0891,-0.0889,-0.0881,-0.0881,-0.0879,-0.0873,-0.0871,-0.0868,-0.0864,-0.086,-0.0859,-0.0861,-0.086,-0.0859,-0.0857,-0.0864,-0.0865,-0.0866,-0.0868,-0.0869,-0.0858,-0.0858,-0.0857,-0.0857,0,-0.0907,-0.0906,-0.0907,-0.0902,-0.09,-0.09,-0.0893,-0.0892,-0.0887,-0.0883,-0.0882,-0.0877,-0.0873,-0.0873,-0.0869,-0.0872,-0.087,-0.0866,-0.086,-0.0868,-0.0869,-0.087,-0.0858,-0.0858,-0.0858,-0.0858,0,0,-0.0923,-0.0914,-0.0914,-0.0911,-0.0905,-0.0904,-0.0903,-0.0899,-0.0898,-0.0895,-0.0894,-0.0891,-0.0887,-0.0884,-0.088,-0.088,-0.0885,-0.0876,-0.0875,-0.0877,-0.0888,-0.0891,-0.0892,-0.0882,-0.0882,-0.0882,-0.0888,0,-0.0931,-0.0929,-0.0923,-0.0924,-0.0922,-0.0914,-0.0914,-0.091,-0.0905,-0.0903,-0.0899,-0.0896,-0.0891,-0.089,-0.089,-0.0885,-0.0887,-0.0884,-0.0881,-0.0881,-0.0882,-0.0893,-0.0896,-0.0902,-0.0889,-0.0889,-0.0889,0,-0.0939,-0.0936,-0.0936,-0.0929,-0.0928,-0.0928,-0.0924,-0.0922,-0.0917,-0.0914,-0.0911,-0.0906,-0.0905,-0.09,-0.0898,-0.0896,-0.0894,-0.0891,-0.0891,-0.0891,-0.0885,-0.0892,-0.0904,-0.0904,-0.089,-0.089,-0.089,0,-0.095,-0.0946,-0.0945,-0.0943,-0.0935,-0.0935,-0.0932,-0.0927,-0.0925,-0.0921,-0.0919,-0.0916,-0.0914,-0.0911,-0.0904,-0.0901,-0.0903,-0.0898,-0.09,-0.09,-0.09,-0.09,-0.0912,-0.09,-0.09,-0.09,-0.09,0,-0.0959,-0.096,-0.095,-0.095,-0.095,-0.0943,-0.0943,-0.0939,-0.0934,-0.0933,-0.0926,-0.0924,-0.0916,-0.0914,-0.0909,-0.0908,-0.0907,-0.0904,-0.0903,-0.0905,-0.0905,-0.0903,-0.0902,-0.09,-0.09,-0.09,-0.09,0,-0.0971,-0.0965,-0.0964,-0.0956,-0.0954,-0.0955,-0.0948,-0.0948,-0.0943,-0.0941,-0.094,-0.0933,-0.0929,-0.0923,-0.0918,-0.0915,-0.0915,-0.0912,-0.0916,-0.0915,-0.0918,-0.0918,-0.0928,-0.0929,-0.0917,-0.0917,-0.0917,0,-0.0977,-0.0977,-0.097,-0.0968,-0.0965,-0.0963,-0.0961,-0.0954,-0.0952,-0.0946,-0.0946,-0.0942,-0.0939,-0.0934,-0.0928,-0.0924,-0.0921,-0.0925,-0.0921,-0.0922,-0.0921,-0.0921,-0.0921,-0.0926,-0.0926,-0.0927,-0.0927,0,-0.0989,-0.0985,-0.0982,-0.0978,-0.0976,-0.0972,-0.0969,-0.0968,-0.0959,-0.0957,-0.0954,-0.0952,-0.0946,-0.0943,-0.0938,-0.0934,-0.0929,-0.0928,-0.0928,-0.093,-0.0932,-0.0931,-0.0919,-0.0928,-0.0928,-0.0928,-0.0928,-0.0928,-0.0998,-0.0997,-0.0992,-0.0988,-0.0985,-0.0981,-0.098,-0.0975,-0.0972,-0.0967,-0.0963,-0.096,-0.0955,-0.0948,-0.0944,-0.0942,-0.0939,-0.094,-0.094,-0.094,-0.094,-0.0933,-0.0941,-0.0941,-0.0941,-0.0941,-0.0941,0,-0.1008,-0.1004,-0.1001,-0.0996,-0.0993,-0.0989,-0.0984,-0.0982,-0.098,-0.0975,-0.0972,-0.0968,-0.0964,-0.0958,-0.0953,-0.0952,-0.095,-0.0951,-0.0951,-0.095,-0.0943,-0.0943,-0.0954,-0.0954,-0.0954,-0.0954,-0.0954,-0.0954,-0.1013,-0.1012,-0.1008,-0.1005,-0.1001,-0.0998,-0.0995,-0.0992,-0.0988,-0.0984,-0.0981,-0.0977,-0.0971,-0.0966,-0.0963,-0.0961,-0.0959,-0.0962,-0.0959,-0.0952,-0.0951,-0.095,-0.095,-0.0962,-0.0962,-0.0967,-0.0967,-0.0967]}]]